This demonstration page uses our WeatherBlox Daily Observations layout. Learn more.

Left ArrowRight Arrow

Hourly Observations for April 2, 2021

Temp ( °F °C ) Dew Point ( °F °C ) Humidity (%) Winds ( mph kmh ) Pressure ( in mb ) Visibility ( mi km ) Precip ( " mm )
12:59 am 00:59 Mostly Cloudy 40 4.4 23 -5 51 51 NNW 25 41 30.18 1022 10 16 0.00 0.00
1:59 am 01:59 Mostly Cloudy 39 3.9 20 -6.7 46 46 NNW 25 41 30.18 1022 10 16 0.00 0.00
2:59 am 02:59 Partly Cloudy 38 3.3 20 -6.7 48 48 NNW 23 37 30.19 1022 10 16 0.00 0.00
3:59 am 03:59 Mostly Cloudy 37 2.8 19 -7.2 48 48 NNW 23 37 30.19 1023 10 16 0.00 0.00
4:59 am 04:59 Partly Cloudy 36 2.2 20 -6.7 52 52 NNW 23 37 30.21 1023 10 16 0.00 0.00
5:59 am 05:59 Partly Cloudy 35 1.7 20 -6.7 54 54 NNW 21 33 30.24 1024 10 16 0.00 0.00
6:59 am 06:59 Mostly Sunny 35 1.7 20 -6.7 54 54 NNW 23 37 30.27 1025 10 16 0.00 0.00
7:59 am 07:59 Mostly Sunny 35 1.7 18 -7.8 50 50 NNW 24 39 30.29 1026 10 16 0.00 0.00
8:59 am 08:59 Partly Cloudy 37 2.8 20 -6.7 50 50 NNW 23 37 30.31 1026 10 16 0.00 0.00
9:59 am 09:59 Partly Cloudy 37 2.8 18 -7.8 46 46 NW 21 33 30.32 1027 10 16 0.00 0.00
10:59 am 10:59 Mostly Cloudy 40 4.4 19 -7.2 43 43 NNW 15 24 30.34 1027 10 16 0.00 0.00
11:59 am 11:59 Mostly Cloudy 39 3.9 16 -8.9 39 39 NNW 17 28 30.33 1027 10 16 0.00 0.00
12:59 pm 12:59 Cloudy 41 5 16 -8.9 36 36 NNW 17 28 30.32 1027 10 16 0.00 0.00
1:59 pm 13:59 Partly Cloudy 43 6.1 15 -9.4 32 32 N 16 26 30.30 1026 10 16 0.00 0.00
2:59 pm 14:59 Partly Cloudy 45 7.2 14 -10 29 29 NW 20 31 30.29 1026 10 16 0.00 0.00
3:59 pm 15:59 Partly Cloudy 44 6.7 12 -11.1 27 27 NNW 15 24 30.28 1025 10 16 0.00 0.00
4:59 pm 16:59 Mostly Cloudy 45 7.2 15 -9.4 30 30 NNW 16 26 30.28 1026 10 16 0.00 0.00
5:59 pm 17:59 Mostly Cloudy 47 8.3 14 -10 26 26 NNW 16 26 30.29 1026 10 16 0.00 0.00
6:59 pm 18:59 Partly Cloudy 44 6.7 13 -10.6 28 28 NNW 16 26 30.30 1026 10 16 0.00 0.00
7:59 pm 19:59 Mostly Clear 44 6.7 14 -10 30 30 NNW 16 26 30.32 1027 10 16 0.00 0.00
8:59 pm 20:59 Mostly Clear 44 6.7 13 -10.6 28 28 NNW 14 22 30.35 1028 10 16 0.00 0.00
9:59 pm 21:59 Clear 43 6.1 15 -9.4 32 32 NNW 14 22 30.36 1028 10 16 0.00 0.00
10:59 pm 22:59 Clear 43 6.1 16 -8.9 34 34 NNW 16 26 30.37 1029 10 16 0.00 0.00
11:59 pm 23:59 Clear 42 5.6 18 -7.8 38 38 NNW 14 22 30.38 1029 10 16 0.00 0.00

Powered by AerisWeather